[[{"header":{"parameterUnit":"m.s-1","parameterCategory":1,"la1":30.2991,"la2":30.254,"lo1":-89.0895,"lo2":-89.0444,"dy":0.0017,"dx":0.0017,"nx":28,"ny":28,"refTime":"2024-08-14T21:00:00:Z","depth":0,"parameterNumber":2,"parameterNumberName":"U-component_of_WINDS"},"data":[0,0,0,0,0,0,0,0,0,0,0,0,0,0,0,0,0,0,0,0,0,0,0,0,0,0,0,0,0,0,0,0,0,0,0,0,0,0,0,0,0,0,0,0,0,0,0,0,0,0,0,0,0,0,0,0,0,0,2.5193,2.5192,0,2.5152,2.5151,2.5151,2.5036,2.5034,2.5031,2.5029,2.4991,2.4993,2.4994,0,0,0,0,0,0,0,0,0,0,0,0,0,2.5176,2.5177,2.5193,2.5192,2.5192,2.5152,2.5151,2.5151,2.5037,2.5034,2.5031,2.5028,2.4991,2.4993,2.4994,0,0,0,0,0,0,0,0,0,0,0,0,0,2.5165,2.5178,2.5193,2.513,2.5124,2.5152,2.5151,2.5151,2.5038,2.5034,2.503,2.5027,2.4991,2.4992,2.4994,2.5081,0,0,2.5,2.5001,0,0,0,0,0,0,0,0,2.5165,2.5165,2.514,2.5134,2.5128,2.5095,2.5132,2.5128,2.5038,2.5071,2.5029,2.5025,2.5029,2.5028,2.5029,2.508,2.5078,2.5001,2.5002,2.5003,2.5003,0,0,0,0,0,0,0,2.5166,2.5166,2.5177,2.514,2.5132,2.5105,2.5099,2.513,2.5072,2.5067,2.5059,2.5056,2.5025,2.5027,2.5027,2.5078,2.5001,2.5002,2.5004,2.5004,2.5199,2.5203,0,0,0,0,0,0,2.5176,2.5168,2.5178,2.5175,2.5138,2.5109,2.5102,2.511,2.5071,2.5061,2.5059,2.505,2.5025,2.5025,2.5025,2.5125,2.5003,2.5005,2.5006,2.5195,2.52,2.5204,0,0,0,0,0,0,2.5176,2.5178,2.518,2.5169,2.5168,2.5113,2.5122,2.5111,2.5112,2.5064,2.5054,2.5071,2.5022,2.5022,2.5068,2.5122,2.5005,2.5007,2.5191,2.5197,2.5202,2.5327,0,0,0,0,0,0,2.5176,2.5178,2.521,2.5171,2.5169,2.5223,2.5125,2.5113,2.5115,2.5104,2.5073,2.5064,2.5019,2.5066,2.507,2.5123,2.5009,2.5186,2.5193,2.52,2.5317,2.5336,2.5352,0,0,0,0,0,2.5176,2.5247,2.5212,2.5214,2.5207,2.5226,2.5225,2.5171,2.512,2.5152,2.5122,2.5065,2.5116,2.5072,2.5075,2.513,2.5182,2.5191,2.52,2.531,2.5332,2.5352,0,0,0,0,0,0,2.5295,2.5241,2.5201,2.5262,2.525,2.5207,2.5245,2.5196,2.5199,2.5188,2.5122,2.5116,2.5172,2.5155,2.5107,2.5213,2.514,2.515,2.5222,2.5243,2.526,2.5264,2.501,0,0,0,0,0,2.5329,2.5348,2.5299,2.5358,2.5353,2.5301,2.5307,2.5267,2.5251,2.5246,2.5218,2.5207,2.522,2.523,2.524,2.5314,2.5306,2.5353,2.5371,2.5385,2.5395,2.5435,2.5455,2.5234,2.5234,2.5234,0,0,2.5398,2.5371,2.5387,2.5381,2.5367,2.5389,2.5297,2.5325,2.5341,2.525,2.5292,2.5272,2.5255,2.5316,2.5341,2.5303,2.5455,2.5397,2.5408,2.5411,2.5446,2.5467,2.5486,2.524,2.5239,2.5238,0,0,2.5537,2.5517,2.5564,2.5551,2.5529,2.5494,2.5506,2.547,2.5453,2.5493,2.5425,2.5445,2.5469,2.546,2.5458,2.5594,2.5543,2.5598,2.569,2.5729,2.5746,2.5761,2.5811,2.583,2.5608,2.5609,2.5609,0,2.5626,2.5656,2.5595,2.5627,2.5627,2.5544,2.5592,2.5583,2.5567,2.5569,2.5527,2.5555,2.5538,2.5596,2.5629,2.563,2.5643,2.5602,2.5748,2.5763,2.5776,2.5823,2.5842,2.5616,2.5615,2.5614,2.5614,0,2.5768,2.579,2.5831,2.5816,2.582,2.5861,2.5807,2.5819,2.5778,2.5748,2.5791,2.5767,2.577,2.5781,2.5742,2.5834,2.5812,2.576,2.5685,2.5806,2.5849,2.5866,2.5626,2.5623,2.5621,2.562,0,0,2.5982,2.5932,2.5948,2.5941,2.5911,2.5927,2.5964,2.5966,2.5979,2.597,2.6001,2.6023,2.5975,2.5974,2.5932,2.5967,2.6077,2.591,2.5909,2.5944,2.618,2.622,2.6242,2.6043,2.6046,2.6048,2.6182,0,2.6114,2.6173,2.6119,2.6189,2.6209,2.6131,2.6163,2.6149,2.6122,2.6136,2.6106,2.6124,2.6058,2.6057,2.6087,2.6058,2.6124,2.6047,2.6072,2.6074,2.6081,2.6264,2.6306,2.6434,2.6198,2.6201,2.6203,0,2.6276,2.6274,2.6346,2.6312,2.6318,2.6348,2.6346,2.636,2.6344,2.6321,2.632,2.6269,2.6305,2.6231,2.628,2.6228,2.6235,2.6223,2.6226,2.6228,2.6147,2.6272,2.6473,2.6493,2.6228,2.6226,2.6224,0,2.6427,2.6442,2.6487,2.6483,2.6444,2.6467,2.6452,2.6431,2.6436,2.6435,2.6438,2.6441,2.6444,2.6449,2.6401,2.6351,2.6457,2.6378,2.6441,2.6442,2.6468,2.6467,2.6674,2.647,2.647,2.647,2.6469,0,2.6581,2.6629,2.6554,2.6582,2.6634,2.6571,2.6625,2.6602,2.6584,2.6607,2.654,2.6563,2.6498,2.6516,2.6478,2.6526,2.6527,2.6511,2.6501,2.6518,2.6521,2.6523,2.6514,2.6475,2.6473,2.6472,2.6472,0,2.6759,2.6711,2.6755,2.6714,2.6705,2.6745,2.671,2.6736,2.6703,2.6734,2.6738,2.6688,2.6705,2.6657,2.6667,2.6642,2.6711,2.6686,2.6717,2.671,2.6775,2.6771,2.6993,2.7019,2.6797,2.6799,2.6801,0,2.6861,2.6896,2.6858,2.6868,2.6857,2.6874,2.6878,2.6819,2.6827,2.681,2.6838,2.6849,2.6855,2.6886,2.6852,2.6859,2.6835,2.6912,2.6836,2.6852,2.6838,2.6837,2.6841,2.6929,2.6931,2.6933,2.6935,0,2.7049,2.7023,2.7031,2.7032,2.7039,2.7036,2.703,2.7042,2.6978,2.6991,2.7006,2.7011,2.7021,2.7033,2.7033,2.7019,2.6968,2.6959,2.6974,2.6993,2.701,2.7004,2.6762,2.6955,2.6953,2.6952,2.695,2.695,2.7193,2.722,2.7198,2.721,2.7198,2.7194,2.7215,2.7185,2.7197,2.7199,2.7163,2.7187,2.717,2.7165,2.7156,2.7175,2.714,2.7161,2.7167,2.7174,2.7186,2.7006,2.7175,2.7174,2.7173,2.7173,2.7172,0,2.7378,2.736,2.7371,2.7363,2.7373,2.7321,2.7311,2.7323,2.7345,2.7332,2.7339,2.7358,2.737,2.7336,2.7344,2.7365,2.7342,2.7369,2.7368,2.7366,2.7216,2.7203,2.7388,2.7388,2.7388,2.7388,2.7388,2.7388,2.7476,2.752,2.7492,2.753,2.7511,2.7533,2.7532,2.7528,2.7517,2.7541,2.755,2.7527,2.7507,2.7512,2.7522,2.7512,2.7518,2.7555,2.7537,2.7398,2.7377,2.7357,2.7344,2.7556,2.7556,2.7685,2.7687,2.7688]},{"header":{"parameterUnit":"m.s-1","parameterCategory":1,"la1":30.2991,"la2":30.254,"lo1":-89.0895,"lo2":-89.0444,"dy":0.0017,"dx":0.0017,"nx":28,"ny":28,"refTime":"2024-08-14T21:00:00:Z","depth":0,"parameterNumber":3,"parameterNumberName":"V-component_of_WINDS"},"data":[0,0,0,0,0,0,0,0,0,0,0,0,0,0,0,0,0,0,0,0,0,0,0,0,0,0,0,0,0,0,0,0,0,0,0,0,0,0,0,0,0,0,0,0,0,0,0,0,0,0,0,0,0,0,0,0,0,0,-0.1229,-0.123,0,-0.125,-0.1251,-0.1251,-0.1265,-0.1265,-0.1265,-0.1265,-0.1286,-0.1287,-0.1287,0,0,0,0,0,0,0,0,0,0,0,0,0,-0.1202,-0.1203,-0.1229,-0.123,-0.123,-0.125,-0.1251,-0.1251,-0.1265,-0.1265,-0.1265,-0.1265,-0.1286,-0.1287,-0.1287,0,0,0,0,0,0,0,0,0,0,0,0,0,-0.1218,-0.1203,-0.1229,-0.1239,-0.124,-0.125,-0.1251,-0.1251,-0.1265,-0.1265,-0.1265,-0.1265,-0.1286,-0.1287,-0.1287,-0.1288,0,0,-0.1289,-0.129,0,0,0,0,0,0,0,0,-0.1217,-0.1219,-0.1238,-0.1239,-0.124,-0.1255,-0.1249,-0.1263,-0.1265,-0.1256,-0.1265,-0.1265,-0.1276,-0.1277,-0.1281,-0.1289,-0.129,-0.1289,-0.129,-0.129,-0.129,0,0,0,0,0,0,0,-0.1216,-0.1218,-0.1238,-0.1238,-0.1239,-0.1243,-0.1245,-0.1252,-0.1265,-0.1256,-0.1258,-0.126,-0.1276,-0.128,-0.1281,-0.1291,-0.1289,-0.129,-0.129,-0.1291,-0.1303,-0.1303,0,0,0,0,0,0,-0.1213,-0.1217,-0.1237,-0.1238,-0.1228,-0.1243,-0.1246,-0.125,-0.1264,-0.1267,-0.126,-0.126,-0.1279,-0.1281,-0.1282,-0.1286,-0.129,-0.1291,-0.1291,-0.1303,-0.1303,-0.1303,0,0,0,0,0,0,-0.1212,-0.1215,-0.1236,-0.1228,-0.1231,-0.1244,-0.1248,-0.125,-0.1254,-0.1267,-0.1269,-0.1261,-0.1279,-0.1281,-0.1287,-0.1287,-0.1291,-0.1292,-0.1303,-0.1303,-0.1303,-0.1292,0,0,0,0,0,0,-0.1211,-0.1214,-0.1215,-0.1228,-0.1231,-0.124,-0.1248,-0.1251,-0.1255,-0.1257,-0.1269,-0.1271,-0.1279,-0.1286,-0.1288,-0.1288,-0.1292,-0.1303,-0.1303,-0.1303,-0.1292,-0.1291,-0.1291,0,0,0,0,0,-0.121,-0.121,-0.1215,-0.1217,-0.1232,-0.124,-0.1242,-0.1252,-0.1255,-0.1256,-0.1265,-0.1271,-0.1286,-0.1287,-0.1289,-0.1289,-0.1303,-0.1303,-0.1303,-0.1293,-0.1292,-0.1291,0,0,0,0,0,0,-0.1196,-0.1212,-0.1217,-0.1221,-0.1229,-0.1243,-0.1244,-0.125,-0.1258,-0.1258,-0.127,-0.1273,-0.1278,-0.1284,-0.1284,-0.1291,-0.1296,-0.1296,-0.1287,-0.1286,-0.1285,-0.1284,-0.1293,0,0,0,0,0,-0.1193,-0.1199,-0.1213,-0.1215,-0.1219,-0.1231,-0.1235,-0.1242,-0.125,-0.1254,-0.1263,-0.1271,-0.1278,-0.1283,-0.129,-0.1293,-0.1297,-0.1295,-0.1294,-0.1293,-0.1293,-0.1297,-0.1296,-0.1302,-0.1302,-0.1302,0,0,-0.1188,-0.1197,-0.12,-0.1212,-0.1219,-0.1225,-0.1233,-0.1239,-0.1243,-0.1255,-0.1261,-0.1268,-0.1278,-0.1284,-0.1286,-0.1289,-0.1292,-0.1293,-0.1292,-0.1292,-0.1297,-0.1296,-0.1296,-0.1302,-0.1302,-0.1302,0,0,-0.1181,-0.1188,-0.1192,-0.1199,-0.121,-0.1218,-0.1219,-0.1232,-0.1237,-0.1244,-0.1253,-0.1259,-0.127,-0.1278,-0.1283,-0.1281,-0.1287,-0.1282,-0.1278,-0.1281,-0.1281,-0.1281,-0.1281,-0.128,-0.1282,-0.1282,-0.1282,0,-0.1173,-0.1182,-0.1192,-0.1198,-0.1204,-0.1215,-0.1219,-0.1225,-0.1238,-0.1242,-0.1244,-0.126,-0.1268,-0.1275,-0.1275,-0.1279,-0.1281,-0.1281,-0.128,-0.128,-0.128,-0.128,-0.128,-0.1282,-0.1282,-0.1282,-0.1282,0,-0.1172,-0.1178,-0.1179,-0.1192,-0.1198,-0.1202,-0.1214,-0.1219,-0.1225,-0.1233,-0.1241,-0.1251,-0.1261,-0.1263,-0.1269,-0.1272,-0.1273,-0.1278,-0.1283,-0.1278,-0.1279,-0.1279,-0.1281,-0.1281,-0.1281,-0.1282,0,0,-0.1156,-0.1175,-0.1176,-0.1182,-0.1196,-0.1201,-0.1207,-0.1217,-0.1221,-0.123,-0.1235,-0.1245,-0.125,-0.1256,-0.1263,-0.1266,-0.1265,-0.1271,-0.1271,-0.127,-0.1271,-0.1267,-0.1267,-0.127,-0.127,-0.127,-0.127,0,-0.1151,-0.1162,-0.1172,-0.1179,-0.1186,-0.1197,-0.1202,-0.1212,-0.1219,-0.1226,-0.1235,-0.1243,-0.1248,-0.1252,-0.1255,-0.1265,-0.1266,-0.1265,-0.1275,-0.1276,-0.1273,-0.1267,-0.1264,-0.1263,-0.127,-0.127,-0.127,0,-0.1148,-0.1157,-0.1164,-0.1179,-0.1182,-0.1186,-0.1197,-0.1203,-0.1215,-0.122,-0.1228,-0.1236,-0.1243,-0.1247,-0.1257,-0.1256,-0.1262,-0.1267,-0.1267,-0.1269,-0.1273,-0.1269,-0.1263,-0.1263,-0.127,-0.127,-0.127,0,-0.1136,-0.115,-0.1157,-0.1162,-0.1179,-0.1182,-0.1189,-0.12,-0.1206,-0.1216,-0.122,-0.123,-0.1236,-0.1243,-0.1254,-0.1256,-0.1264,-0.1269,-0.1269,-0.1269,-0.1271,-0.127,-0.1266,-0.1273,-0.1273,-0.1273,-0.1273,0,-0.1131,-0.1135,-0.1152,-0.1157,-0.1163,-0.1175,-0.118,-0.1188,-0.1199,-0.1205,-0.1215,-0.1221,-0.1235,-0.1243,-0.1251,-0.1259,-0.1262,-0.1267,-0.1269,-0.1266,-0.1266,-0.127,-0.127,-0.1273,-0.1273,-0.1273,-0.1273,0,-0.1119,-0.1131,-0.1139,-0.1155,-0.1159,-0.1162,-0.1176,-0.1181,-0.119,-0.1198,-0.12,-0.1214,-0.1224,-0.1236,-0.1249,-0.1255,-0.1263,-0.1266,-0.1259,-0.126,-0.1261,-0.1261,-0.1259,-0.126,-0.1266,-0.1266,-0.1266,0,-0.1115,-0.1119,-0.1135,-0.114,-0.1147,-0.1155,-0.1162,-0.1174,-0.1181,-0.1194,-0.1198,-0.1208,-0.1218,-0.1233,-0.1244,-0.1255,-0.1259,-0.1258,-0.1261,-0.1258,-0.126,-0.126,-0.1261,-0.1257,-0.1257,-0.1257,-0.1256,0,-0.1107,-0.1113,-0.1121,-0.1133,-0.114,-0.1149,-0.1159,-0.1163,-0.1177,-0.1184,-0.1194,-0.1202,-0.1216,-0.1227,-0.1239,-0.1247,-0.1254,-0.1256,-0.1257,-0.1254,-0.125,-0.1253,-0.1257,-0.1255,-0.1256,-0.1256,-0.1256,-0.1256,-0.1099,-0.1104,-0.1116,-0.1126,-0.1135,-0.1144,-0.115,-0.116,-0.1169,-0.1182,-0.1188,-0.1199,-0.1211,-0.1229,-0.1236,-0.1245,-0.1248,-0.1249,-0.1249,-0.1249,-0.1249,-0.1248,-0.1247,-0.1247,-0.1247,-0.1247,-0.1247,0,-0.1092,-0.1101,-0.111,-0.1124,-0.1132,-0.1139,-0.115,-0.1156,-0.1165,-0.1176,-0.1185,-0.1198,-0.1209,-0.1222,-0.1234,-0.1238,-0.1242,-0.1241,-0.1241,-0.1243,-0.1245,-0.1244,-0.1238,-0.1238,-0.1238,-0.1238,-0.1238,-0.1238,-0.109,-0.1098,-0.1106,-0.1119,-0.1128,-0.1138,-0.1144,-0.1153,-0.1162,-0.1176,-0.1185,-0.1193,-0.1205,-0.1218,-0.1229,-0.1233,-0.1237,-0.1235,-0.1239,-0.1242,-0.1242,-0.1243,-0.1242,-0.1235,-0.1235,-0.1236,-0.1236,-0.1236]}]]